Weather History for Vernon, TX

Change the Weather History Date:

Saturday, July 20, 2013

  Actual Average (KLTS) Record (KLTS)
Temperature  
Mean Temperature 85 °F -  
Max Temperature 97 °F 96 °F 106 °F (2012)
Min Temperature 73 °F 71 °F 65 °F (2014)
Cooling Degree Days 20    
Growing Degree Days 35 (Base 50)    
Moisture  
Dew Point 64 °F    
Average Humidity 52    
Maximum Humidity 78    
Minimum Humidity 28    
Precipitation  
Precipitation 0.00 in - - ()
Sea Level Pressure  
Sea Level Pressure 29.93 in    
Wind  
Wind Speed 7 mph (South)    
Max Wind Speed 13 mph    
Max Gust Speed 20 mph    
Visibility 10 miles    
Events      
Averages and records for this station are not official NWS values.
T = Trace of Precipitation, MM = Missing Value Source: NWS Daily Summary

Daily Weather History Graph

Daily Weather History Graph

Search for Another Location

Airport:

Trip Planner

Search our weather history database for the weather conditions in past years. The results will help you decide how hot, cold, wet, or windy it might be!

Date:

Astronomy

Jul. 20, 2013 Rise Set
Actual Time 6:39 AM CDT 8:46 PM CDT
Civil Twilight 6:11 AM CDT 9:15 PM CDT
Nautical Twilight 5:37 AM CDT 9:49 PM CDT
Astronomical Twilight 4:59 AM CDT 10:26 PM CDT
Moon 6:52 PM CDT (7/20) 4:21 AM CDT (7/20)
Length of Visible Light 15h 03m
Length of Day
14h 06m
Waxing Gibbous, 94% of the Moon is Illuminated
Jul 20
Waxing Gibbous
Jul 22
Full
Jul 29
Last Quarter
Aug 6
New
Aug 14
First Quarter

Hourly Weather History & Observations

Time (CDT) Temp. Heat Index Dew Point Humidity Pressure Visibility Wind Dir Wind Speed Gust Speed Precip Events Conditions
12:15 AM 78.8 °F - 68.7 °F 71% 29.99 in 10.0 mi SE 6.9 mph - N/A   Clear
12:35 AM 80.4 °F 83.1 °F 68.0 °F 66% 29.99 in 10.0 mi SSE 5.8 mph - N/A   Clear
12:55 AM 79.7 °F - 68.4 °F 68% 29.99 in 10.0 mi SSE 6.9 mph - N/A   Clear
1:15 AM 78.8 °F - 68.9 °F 72% 29.99 in 10.0 mi SSE 6.9 mph - N/A   Clear
1:35 AM 78.8 °F - 68.9 °F 72% 29.99 in 10.0 mi SSE 6.9 mph - N/A   Clear
1:55 AM 78.4 °F - 68.9 °F 72% 29.99 in 10.0 mi SSE 5.8 mph - N/A   Clear
2:15 AM 78.3 °F - 68.5 °F 72% 29.98 in 10.0 mi SSE 6.9 mph - N/A   Clear
2:35 AM 77.7 °F - 68.7 °F 74% 29.99 in 10.0 mi South 4.6 mph - N/A   Clear
2:55 AM 76.6 °F - 68.9 °F 77% 29.98 in 10.0 mi South 5.8 mph - N/A   Clear
3:15 AM 77.0 °F - 68.7 °F 75% 29.98 in 10.0 mi South 8.1 mph - N/A   Clear
3:35 AM 77.2 °F - 68.2 °F 74% 29.97 in 10.0 mi South 6.9 mph - N/A   Clear
3:55 AM 76.6 °F - 68.0 °F 75% 29.97 in 10.0 mi South 5.8 mph - N/A   Clear
4:15 AM 76.1 °F - 68.0 °F 76% 29.97 in 10.0 mi SSW 5.8 mph - N/A   Clear
4:35 AM 75.6 °F - 67.8 °F 77% 29.97 in 10.0 mi SW 4.6 mph - N/A   Clear
4:55 AM 75.0 °F - 67.5 °F 77% 29.97 in 10.0 mi SSW 4.6 mph - N/A   Clear
5:15 AM 74.8 °F - 67.1 °F 77% 29.97 in 10.0 mi South 5.8 mph - N/A   Clear
5:35 AM 74.8 °F - 66.4 °F 75% 29.97 in 10.0 mi South 6.9 mph - N/A   Clear
5:55 AM 74.5 °F - 66.2 °F 75% 29.97 in 10.0 mi South 5.8 mph - N/A   Clear
6:15 AM 74.1 °F - 66.2 °F 76% 29.97 in 10.0 mi SSW 5.8 mph - N/A   Clear
6:59 AM 73.4 °F - 66.2 °F 78% 29.97 in 10.0 mi South 4.6 mph - N/A   Clear
7:18 AM 73.4 °F - 66.2 °F 78% 29.96 in 10.0 mi South 5.8 mph - N/A   Clear
7:39 AM 75.2 °F - 66.2 °F 73% 29.96 in 10.0 mi South 4.6 mph - N/A   Clear
7:58 AM 77.0 °F - 66.2 °F 69% 29.97 in 10.0 mi South 3.5 mph - N/A   Clear
8:15 AM 77.4 °F - 65.5 °F 67% 29.97 in 10.0 mi South 4.6 mph - N/A   Clear
8:35 AM 78.8 °F - 65.3 °F 63% 29.97 in 10.0 mi SSW 6.9 mph - N/A   Clear
8:55 AM 79.9 °F - 64.9 °F 60% 29.97 in 10.0 mi SSW 8.1 mph - N/A   Clear
9:15 AM 81.1 °F 82.9 °F 65.1 °F 58% 29.97 in 10.0 mi SW 8.1 mph - N/A   Clear
9:35 AM 82.6 °F 84.5 °F 65.7 °F 56% 29.97 in 10.0 mi SW 10.4 mph - N/A   Clear
9:55 AM 84.2 °F 86.1 °F 65.5 °F 53% 29.97 in 10.0 mi WSW 11.5 mph - N/A   Clear
10:15 AM 85.6 °F 87.4 °F 65.1 °F 50% 29.97 in 10.0 mi SW 10.4 mph - N/A   Clear
10:35 AM - - - N/A% 29.97 in 10.0 mi WSW 9.2 mph - N/A   Unknown
10:55 AM 88.3 °F 90.2 °F 65.1 °F 46% 29.97 in 10.0 mi WSW 6.9 mph - N/A   Clear
11:15 AM 89.4 °F 91.2 °F 64.8 °F 44% 29.97 in 10.0 mi SW 8.1 mph - N/A   Clear
11:35 AM 90.5 °F 91.4 °F 63.1 °F 40% 29.97 in 10.0 mi SW 9.2 mph - N/A   Clear
11:55 AM 91.2 °F 91.8 °F 62.2 °F 38% 29.96 in 10.0 mi WSW 8.1 mph - N/A   Clear
12:15 PM 92.1 °F 91.7 °F 59.7 °F 34% 29.96 in 10.0 mi WSW 6.9 mph 16.1 mph N/A   Clear
12:35 PM 92.8 °F 92.1 °F 59.2 °F 32% 29.96 in 10.0 mi SW 5.8 mph - N/A   Clear
12:55 PM 93.2 °F 92.2 °F 58.6 °F 31% 29.95 in 10.0 mi WSW 4.6 mph 9.2 mph N/A   Clear
1:35 PM 94.6 °F 93.5 °F 57.6 °F 29% 29.94 in 10.0 mi SSW 5.8 mph - N/A   Scattered Clouds
1:55 PM 94.6 °F 93.9 °F 58.5 °F 30% 29.94 in 10.0 mi SW 12.7 mph 17.3 mph N/A   Clear
2:15 PM 95.4 °F 94.6 °F 58.3 °F 29% 29.93 in 10.0 mi South 5.8 mph 16.1 mph N/A   Clear
2:35 PM 95.5 °F 94.8 °F 58.5 °F 29% 29.93 in 10.0 mi SW 9.2 mph 19.6 mph N/A   Clear
2:55 PM 95.9 °F 94.9 °F 58.3 °F 28% 29.91 in 10.0 mi SSW 11.5 mph - N/A   Clear
3:15 PM 95.9 °F 94.9 °F 58.1 °F 28% 29.91 in 10.0 mi SSE 10.4 mph - N/A   Scattered Clouds
3:35 PM 96.3 °F 95.9 °F 58.8 °F 29% 29.90 in 10.0 mi SSW 9.2 mph - N/A   Clear
3:55 PM 95.9 °F 95.3 °F 59.0 °F 29% 29.89 in 10.0 mi SSW 6.9 mph - N/A   Scattered Clouds
4:15 PM 96.6 °F 96.4 °F 59.5 °F 29% 29.88 in 10.0 mi South 5.8 mph - N/A   Scattered Clouds
4:35 PM 96.8 °F 96.2 °F 58.8 °F 28% 29.88 in 10.0 mi SSW 6.9 mph 10.4 mph N/A   Scattered Clouds
4:55 PM 96.6 °F 96.0 °F 58.3 °F 28% 29.87 in 10.0 mi SSW 9.2 mph - N/A   Clear
5:15 PM 96.3 °F 95.5 °F 57.9 °F 28% 29.87 in 10.0 mi SSW 10.4 mph - N/A   Clear
5:55 PM 97.0 °F 96.5 °F 58.8 °F 28% 29.85 in 10.0 mi SSW 10.4 mph - N/A   Clear
6:15 PM 96.3 °F 95.5 °F 58.1 °F 28% 29.85 in 10.0 mi SSE 8.1 mph - N/A   Clear
6:35 PM 96.4 °F 95.7 °F 58.1 °F 28% 29.85 in 10.0 mi SSW 10.4 mph - N/A   Clear
6:55 PM 95.9 °F 94.9 °F 57.7 °F 28% 29.85 in 10.0 mi South 6.9 mph - N/A   Clear
7:15 PM 95.2 °F 94.3 °F 57.9 °F 29% 29.85 in 10.0 mi South 4.6 mph - N/A   Clear
7:35 PM 95.0 °F 93.7 °F 57.4 °F 28% 29.85 in 10.0 mi SSW 9.2 mph - N/A   Scattered Clouds
7:55 PM 93.9 °F 92.9 °F 57.9 °F 30% 29.85 in 10.0 mi South 6.9 mph - N/A   Clear
8:15 PM 91.4 °F 91.0 °F 60.1 °F 35% 29.85 in 10.0 mi South 6.9 mph - N/A   Clear
8:35 PM 89.4 °F 89.8 °F 62.1 °F 40% 29.84 in 10.0 mi South 6.9 mph - N/A   Clear
8:55 PM 87.6 °F 88.5 °F 63.3 °F 44% 29.85 in 10.0 mi SSE 6.9 mph - N/A   Clear
9:15 PM 86.4 °F 87.6 °F 64.0 °F 47% 29.86 in 10.0 mi South 6.9 mph - N/A   Clear
9:35 PM 85.8 °F 87.1 °F 64.2 °F 48% 29.87 in 10.0 mi SSE 5.8 mph - N/A   Clear
9:55 PM 85.5 °F 86.8 °F 64.6 °F 49% 29.88 in 10.0 mi SSE 5.8 mph - N/A   Clear
10:15 PM 84.9 °F 86.8 °F 65.7 °F 52% 29.88 in 10.0 mi SE 4.6 mph - N/A   Clear
10:35 PM 83.8 °F 86.3 °F 66.6 °F 56% 29.89 in 10.0 mi SSE 6.9 mph - N/A   Clear
10:55 PM 83.5 °F 85.7 °F 66.2 °F 56% 29.89 in 10.0 mi SSE 6.9 mph - N/A   Clear
11:15 PM 83.3 °F 85.5 °F 66.0 °F 56% 29.90 in 10.0 mi SSE 6.9 mph - N/A   Clear
11:35 PM 83.1 °F 85.0 °F 65.5 °F 55% 29.90 in 10.0 mi SSE 10.4 mph - N/A   Clear
11:55 PM 83.1 °F 84.8 °F 64.8 °F 54% 29.90 in 10.0 mi SSE 11.5 mph - N/A   Clear